[[{"header":{"parameterUnit":"m.s-1","parameterCategory":1,"la1":30.2991,"la2":30.254,"lo1":-89.0895,"lo2":-89.0444,"dy":0.0017,"dx":0.0017,"nx":28,"ny":28,"refTime":"2024-07-27T03:00:00:Z","depth":0,"parameterNumber":2,"parameterNumberName":"U-component_of_WINDS"},"data":[0,0,0,0,0,0,0,0,0,0,0,0,0,0,0,0,0,0,0,0,0,0,0,0,0,0,0,0,0,0,0,0,0,0,0,0,0,0,0,0,0,0,0,0,0,0,0,0,0,0,0,0,0,0,0,0,0,0,-0.6725,-0.6725,0,-0.6736,-0.6736,-0.6736,-0.6738,-0.6737,-0.6737,-0.6737,-0.675,-0.675,-0.6751,0,0,0,0,0,0,0,0,0,0,0,0,0,-0.6706,-0.6706,-0.6725,-0.6725,-0.6725,-0.6736,-0.6736,-0.6736,-0.6738,-0.6737,-0.6737,-0.6737,-0.675,-0.675,-0.6751,0,0,0,0,0,0,0,0,0,0,0,0,0,-0.6715,-0.6706,-0.6725,-0.6727,-0.6727,-0.6736,-0.6736,-0.6736,-0.6738,-0.6737,-0.6737,-0.6737,-0.675,-0.675,-0.6751,-0.6759,0,0,-0.6753,-0.6753,0,0,0,0,0,0,0,0,-0.6715,-0.6716,-0.6726,-0.6727,-0.6727,-0.6735,-0.6734,-0.6744,-0.6738,-0.6734,-0.6737,-0.6737,-0.6745,-0.6746,-0.6749,-0.6759,-0.676,-0.6753,-0.6754,-0.6754,-0.6754,0,0,0,0,0,0,0,-0.6714,-0.6715,-0.6729,-0.6727,-0.6727,-0.6728,-0.6729,-0.6736,-0.674,-0.6734,-0.6734,-0.6735,-0.6745,-0.6748,-0.6749,-0.676,-0.6753,-0.6754,-0.6754,-0.6754,-0.6777,-0.6777,0,0,0,0,0,0,-0.6713,-0.6715,-0.6729,-0.6729,-0.672,-0.6728,-0.673,-0.6733,-0.674,-0.6741,-0.6735,-0.6735,-0.6747,-0.6748,-0.675,-0.6759,-0.6754,-0.6754,-0.6755,-0.6776,-0.6777,-0.6777,0,0,0,0,0,0,-0.6712,-0.6714,-0.6728,-0.6722,-0.6724,-0.6729,-0.6732,-0.6733,-0.6736,-0.6741,-0.6742,-0.6737,-0.6747,-0.6749,-0.6756,-0.6759,-0.6755,-0.6755,-0.6776,-0.6776,-0.6777,-0.6777,0,0,0,0,0,0,-0.6712,-0.6714,-0.6716,-0.6722,-0.6724,-0.6734,-0.6733,-0.6733,-0.6737,-0.6737,-0.6743,-0.6744,-0.6747,-0.6755,-0.6757,-0.676,-0.6756,-0.6776,-0.6776,-0.6777,-0.6777,-0.6777,-0.6777,0,0,0,0,0,-0.6711,-0.6716,-0.6717,-0.6718,-0.6728,-0.6734,-0.6736,-0.6738,-0.6737,-0.674,-0.6743,-0.6744,-0.6758,-0.6756,-0.6758,-0.6761,-0.6776,-0.6776,-0.6777,-0.6776,-0.6777,-0.6777,0,0,0,0,0,0,-0.6711,-0.6717,-0.6717,-0.6725,-0.6729,-0.6735,-0.6738,-0.6739,-0.6744,-0.6744,-0.6747,-0.6749,-0.6756,-0.6759,-0.6756,-0.6769,-0.6767,-0.6768,-0.6766,-0.6767,-0.6767,-0.6766,-0.6756,0,0,0,0,0,-0.6712,-0.6717,-0.6722,-0.6728,-0.673,-0.6734,-0.6737,-0.6738,-0.6743,-0.6745,-0.6749,-0.6754,-0.676,-0.6764,-0.6769,-0.6777,-0.6778,-0.678,-0.6781,-0.6781,-0.6782,-0.6786,-0.6787,-0.6778,-0.6778,-0.6778,0,0,-0.6714,-0.6718,-0.6721,-0.6728,-0.6732,-0.6736,-0.6735,-0.6741,-0.6745,-0.6746,-0.6753,-0.6756,-0.6762,-0.677,-0.6773,-0.6773,-0.6784,-0.6782,-0.6782,-0.6782,-0.6786,-0.6787,-0.6788,-0.6778,-0.6778,-0.6778,0,0,-0.672,-0.6724,-0.6729,-0.6732,-0.6737,-0.674,-0.6741,-0.6746,-0.6748,-0.6755,-0.6757,-0.6761,-0.6771,-0.6775,-0.6778,-0.6785,-0.6786,-0.6787,-0.6789,-0.6793,-0.6794,-0.6795,-0.6797,-0.6798,-0.6788,-0.6788,-0.6788,0,-0.6722,-0.6729,-0.6732,-0.6737,-0.674,-0.6741,-0.6746,-0.675,-0.6756,-0.6759,-0.6758,-0.6769,-0.6774,-0.6782,-0.6784,-0.6786,-0.6788,-0.6786,-0.6794,-0.6794,-0.6795,-0.6797,-0.6798,-0.6788,-0.6788,-0.6788,-0.6788,0,-0.6732,-0.6736,-0.674,-0.6746,-0.675,-0.6755,-0.6758,-0.6761,-0.6762,-0.6765,-0.6772,-0.6777,-0.6783,-0.6785,-0.6787,-0.6794,-0.6793,-0.6793,-0.6791,-0.6796,-0.6798,-0.6799,-0.6788,-0.6788,-0.6788,-0.6788,0,0,-0.6739,-0.6745,-0.6746,-0.6749,-0.6754,-0.6758,-0.6764,-0.6769,-0.6772,-0.6777,-0.6781,-0.6789,-0.6789,-0.6792,-0.6794,-0.6798,-0.6803,-0.6797,-0.6797,-0.6798,-0.6811,-0.6811,-0.6812,-0.6803,-0.6804,-0.6804,-0.681,0,-0.6745,-0.6754,-0.6756,-0.6764,-0.6768,-0.6769,-0.6774,-0.6778,-0.678,-0.6785,-0.6788,-0.6793,-0.6792,-0.6794,-0.6798,-0.6801,-0.6805,-0.6801,-0.6808,-0.6808,-0.6806,-0.6813,-0.6813,-0.6819,-0.6811,-0.6811,-0.6811,0,-0.6754,-0.6758,-0.6766,-0.6771,-0.6773,-0.6777,-0.6782,-0.6786,-0.6791,-0.6792,-0.6796,-0.6797,-0.6803,-0.6801,-0.6809,-0.6806,-0.6809,-0.6811,-0.6811,-0.6812,-0.681,-0.6814,-0.6821,-0.6822,-0.6813,-0.6813,-0.6812,0,-0.6758,-0.6766,-0.6771,-0.6774,-0.6779,-0.6782,-0.6784,-0.6789,-0.6792,-0.6796,-0.6798,-0.6804,-0.6807,-0.6811,-0.6814,-0.6812,-0.6821,-0.682,-0.6823,-0.6823,-0.6825,-0.6825,-0.6833,-0.6827,-0.6827,-0.6827,-0.6827,0,-0.6765,-0.677,-0.6773,-0.6777,-0.6782,-0.6784,-0.679,-0.6792,-0.6796,-0.68,-0.6802,-0.6806,-0.6809,-0.6814,-0.6816,-0.6822,-0.6824,-0.6825,-0.6826,-0.6825,-0.6825,-0.6827,-0.6827,-0.6827,-0.6827,-0.6827,-0.6827,0,-0.6771,-0.6773,-0.6779,-0.6784,-0.6785,-0.6789,-0.6793,-0.6796,-0.6798,-0.6804,-0.6805,-0.6809,-0.6814,-0.6817,-0.6824,-0.6826,-0.6833,-0.6833,-0.6831,-0.6831,-0.6834,-0.6834,-0.6843,-0.6845,-0.6838,-0.6838,-0.6839,0,-0.6775,-0.6779,-0.6783,-0.6786,-0.6788,-0.6793,-0.6795,-0.6798,-0.6801,-0.6806,-0.6809,-0.6814,-0.6818,-0.6827,-0.6831,-0.6836,-0.6837,-0.684,-0.6837,-0.6836,-0.6836,-0.6836,-0.6836,-0.684,-0.684,-0.684,-0.684,0,-0.6783,-0.6783,-0.6787,-0.6792,-0.6795,-0.6798,-0.6802,-0.6804,-0.6807,-0.6811,-0.6816,-0.6819,-0.6826,-0.6831,-0.6836,-0.6839,-0.684,-0.6841,-0.6842,-0.6841,-0.6839,-0.684,-0.6832,-0.684,-0.684,-0.684,-0.684,-0.684,-0.6788,-0.6791,-0.6794,-0.6799,-0.6801,-0.6804,-0.6808,-0.681,-0.6814,-0.682,-0.6821,-0.6826,-0.683,-0.6838,-0.6841,-0.6845,-0.6845,-0.6846,-0.6847,-0.6847,-0.6847,-0.6839,-0.6846,-0.6846,-0.6846,-0.6846,-0.6846,0,-0.6795,-0.6797,-0.6801,-0.6806,-0.6809,-0.6809,-0.6813,-0.6816,-0.682,-0.6824,-0.6828,-0.6834,-0.6839,-0.6842,-0.6847,-0.685,-0.6851,-0.6851,-0.6851,-0.6852,-0.6847,-0.6846,-0.6851,-0.6851,-0.6851,-0.6851,-0.6851,-0.6851,-0.6799,-0.6805,-0.6806,-0.6812,-0.6814,-0.6819,-0.6821,-0.6824,-0.6827,-0.6833,-0.6837,-0.6839,-0.6843,-0.6848,-0.6853,-0.6854,-0.6856,-0.6856,-0.6857,-0.6853,-0.6852,-0.6852,-0.685,-0.6857,-0.6857,-0.6862,-0.6862,-0.6862]},{"header":{"parameterUnit":"m.s-1","parameterCategory":1,"la1":30.2991,"la2":30.254,"lo1":-89.0895,"lo2":-89.0444,"dy":0.0017,"dx":0.0017,"nx":28,"ny":28,"refTime":"2024-07-27T03:00:00:Z","depth":0,"parameterNumber":3,"parameterNumberName":"V-component_of_WINDS"},"data":[0,0,0,0,0,0,0,0,0,0,0,0,0,0,0,0,0,0,0,0,0,0,0,0,0,0,0,0,0,0,0,0,0,0,0,0,0,0,0,0,0,0,0,0,0,0,0,0,0,0,0,0,0,0,0,0,0,0,4.2203,4.2204,0,4.2285,4.2286,4.2287,4.2274,4.2272,4.2271,4.227,4.235,4.2354,4.2357,0,0,0,0,0,0,0,0,0,0,0,0,0,4.2032,4.2036,4.2203,4.2204,4.2205,4.2285,4.2286,4.2287,4.2274,4.2272,4.2271,4.2269,4.2349,4.2353,4.2358,0,0,0,0,0,0,0,0,0,0,0,0,0,4.211,4.2037,4.2203,4.2208,4.221,4.2285,4.2286,4.2288,4.2274,4.2272,4.227,4.2268,4.2348,4.2353,4.2358,4.2432,0,0,4.2374,4.2376,0,0,0,0,0,0,0,0,4.2105,4.2116,4.2207,4.2208,4.221,4.2267,4.2256,4.2336,4.2275,4.225,4.227,4.2267,4.2324,4.2331,4.2351,4.2436,4.244,4.2374,4.2378,4.238,4.2381,0,0,0,0,0,0,0,4.21,4.2112,4.2236,4.2208,4.221,4.2206,4.2214,4.2271,4.2298,4.2252,4.2251,4.2261,4.2325,4.2346,4.2353,4.2441,4.2374,4.2379,4.2382,4.2384,4.2591,4.2593,0,0,0,0,0,0,4.2093,4.2108,4.2233,4.2238,4.2151,4.2211,4.222,4.2251,4.2297,4.2302,4.2263,4.226,4.2338,4.2347,4.2356,4.2446,4.238,4.2385,4.2388,4.2588,4.2591,4.2594,0,0,0,0,0,0,4.209,4.2105,4.223,4.2173,4.2189,4.2216,4.225,4.2254,4.2275,4.2306,4.231,4.228,4.2337,4.2348,4.2414,4.2448,4.2387,4.2392,4.2585,4.2589,4.2592,4.2626,0,0,0,0,0,0,4.2085,4.2104,4.2133,4.2174,4.2192,4.2287,4.2252,4.2257,4.2285,4.2282,4.2323,4.2328,4.2336,4.2406,4.2419,4.2454,4.2396,4.2582,4.2587,4.2591,4.2622,4.263,4.2638,0,0,0,0,0,4.2079,4.2138,4.2134,4.2149,4.2229,4.2289,4.2299,4.2309,4.2287,4.2316,4.2336,4.2326,4.2443,4.2413,4.2427,4.2465,4.258,4.2586,4.2591,4.2619,4.2629,4.2637,0,0,0,0,0,0,4.2099,4.2144,4.214,4.2214,4.2248,4.2287,4.2324,4.232,4.236,4.2355,4.2365,4.2374,4.244,4.2459,4.2425,4.2539,4.2508,4.2517,4.2524,4.2534,4.2542,4.2536,4.24,0,0,0,0,0,4.2113,4.2159,4.2195,4.2257,4.2275,4.2296,4.2323,4.2328,4.2363,4.2377,4.2401,4.2435,4.2479,4.2508,4.255,4.2625,4.2633,4.2658,4.2666,4.2672,4.2679,4.272,4.2731,4.2611,4.2611,4.2611,0,0,4.214,4.217,4.2199,4.2262,4.2289,4.2336,4.2308,4.2359,4.2394,4.2384,4.2448,4.2467,4.2505,4.2575,4.2607,4.2593,4.2714,4.2679,4.2683,4.2687,4.2726,4.2738,4.2748,4.2615,4.2614,4.2614,0,0,4.2215,4.2242,4.2297,4.2325,4.2367,4.2381,4.2394,4.2434,4.2447,4.2511,4.2504,4.2545,4.2621,4.2649,4.2672,4.2758,4.275,4.2771,4.2812,4.2852,4.2861,4.2869,4.29,4.291,4.2778,4.2778,4.2778,0,4.2244,4.2315,4.2326,4.2378,4.2406,4.24,4.2455,4.2482,4.2534,4.2553,4.2536,4.2632,4.2657,4.2734,4.2755,4.2774,4.2789,4.2766,4.2859,4.2868,4.2875,4.2904,4.2916,4.2781,4.278,4.278,4.278,0,4.2349,4.2398,4.2438,4.249,4.2522,4.2576,4.2593,4.2625,4.2627,4.2642,4.2707,4.2738,4.2786,4.2805,4.2806,4.2882,4.2872,4.2857,4.2826,4.2889,4.2916,4.2928,4.2784,4.2783,4.2782,4.2782,0,0,4.2438,4.2496,4.251,4.2534,4.258,4.2618,4.2671,4.2719,4.2746,4.2782,4.2826,4.2891,4.2878,4.2905,4.291,4.2945,4.3011,4.2926,4.2927,4.2941,4.3095,4.3106,4.3119,4.3006,4.3008,4.301,4.3092,0,4.2516,4.2611,4.2622,4.2706,4.2752,4.2748,4.2794,4.2826,4.2842,4.2883,4.29,4.2946,4.2925,4.2942,4.2976,4.2995,4.3042,4.299,4.3046,4.3048,4.3037,4.3133,4.3144,4.322,4.3103,4.3105,4.3106,0,4.2621,4.2662,4.2751,4.279,4.281,4.2851,4.2897,4.2936,4.2972,4.2982,4.3012,4.3013,4.3067,4.3034,4.3108,4.3072,4.3096,4.3109,4.3112,4.3118,4.3081,4.3141,4.3245,4.3256,4.3123,4.3122,4.312,0,4.2677,4.2754,4.2817,4.2838,4.2886,4.2915,4.2936,4.2971,4.2999,4.3038,4.3057,4.3101,4.3126,4.316,4.3172,4.3148,4.3246,4.3214,4.3254,4.3254,4.3275,4.3273,4.3384,4.329,4.329,4.329,4.329,0,4.2764,4.2818,4.2843,4.2882,4.2943,4.2955,4.3014,4.3034,4.3065,4.3107,4.3105,4.3144,4.3158,4.32,4.3209,4.3269,4.328,4.3288,4.329,4.3288,4.3287,4.3304,4.3299,4.3293,4.3292,4.3292,4.3291,0,4.2837,4.2856,4.2924,4.2964,4.2976,4.3019,4.3052,4.3089,4.3105,4.3158,4.3171,4.3196,4.3244,4.326,4.3319,4.3325,4.3394,4.3392,4.3383,4.3383,4.3422,4.3418,4.3547,4.3564,4.346,4.3461,4.3461,0,4.2891,4.2933,4.2978,4.3006,4.3029,4.3075,4.3104,4.3117,4.3148,4.3193,4.3224,4.3273,4.3312,4.3389,4.3412,4.3456,4.3455,4.3497,4.3461,4.3458,4.3455,4.3452,4.3456,4.3503,4.3504,4.3505,4.3506,0,4.2985,4.2992,4.3035,4.3082,4.3117,4.3154,4.319,4.3213,4.3231,4.3266,4.3316,4.3347,4.3407,4.3454,4.35,4.352,4.3516,4.3517,4.3529,4.3527,4.352,4.3524,4.3401,4.3514,4.3513,4.3513,4.3512,4.3512,4.305,4.3087,4.3125,4.3172,4.3201,4.3234,4.3271,4.3292,4.3335,4.3386,4.339,4.3445,4.348,4.3541,4.3564,4.3605,4.3593,4.361,4.3614,4.3618,4.3621,4.3514,4.3614,4.3613,4.3613,4.3613,4.3613,0,4.3143,4.3168,4.3212,4.3262,4.33,4.3294,4.3333,4.3365,4.3413,4.3446,4.3486,4.3543,4.359,4.3616,4.3662,4.3691,4.369,4.3702,4.37,4.3705,4.3629,4.3615,4.3702,4.3702,4.3702,4.3702,4.3702,4.3702,4.3197,4.3259,4.3271,4.3348,4.3371,4.3425,4.3448,4.3479,4.3506,4.357,4.3609,4.3627,4.3657,4.3706,4.3748,4.3754,4.3771,4.3785,4.379,4.3719,4.371,4.3701,4.3688,4.3789,4.3789,4.3862,4.3863,4.3863]}]]